Location: Bonaustraße
(48.4603°N, 11.9280°E)
Time: 05:51:46
(UTC+02:00)

STRAND 1 - Pass Details

Date: 06 August 2021
Orbit: 768 x 781 km, 98.4° (Epoch: 26 September)

Event Time Altitude Azimuth Distance (km) Brightness Sun altitude
Rises 21:58:46 0° 4° (N) 3,254 ? -11.4°
Reaches altitude 10° 22:01:31 10° 350° (N) 2,321 ? -11.8°
Maximum altitude 22:05:23 22° 300° (WNW) 1,621 ? -12.2°
Drops below altitude 10° 22:09:15 10° 251° (WSW) 2,308 ? -12.7°
Sets 22:11:59 0° 236° (WSW) 3,231 ? -13.0°
